ATLAS AGENA B DEB, 630

Orbit data source: Space-Track

ATLAS AGENA B DEB, 630 is space debris in LEO originally from a launch on Fri, 19 Jul 1963 UTC launched from the Air Force Western Test Range (AFWTR). Debris objects in space refer to the collection of defunct objects orbiting the Earth. Examples of debris include non-operational satellites, rocket bodies, and fragments generated from explosions, collisions, or faulty payload assembly.

Loading next visibility...
Identifier
630, 1963-030C
Orbit
LEO
Country
Flag of USUS
Related business
Manufacturer
Unknown
Mission
Spacecraft
Bus & Motor
Unknown
Mass
~10 kg wet, ~10 kg dry
Launch date (UTC)
1963-07-19 (63 years ago)
Launch vehicle
Unknown
Launch site
Air Force Western Test Range (AFWTR)
Object type
Payload
Rocket body
Debris
Shape & HBR
Unknown
Radar Cross Section
Medium (>0.1 m² and <1 m²)

Expand to show TLE details & history
Last TLE update: 1 day ago

TLE from 1 day ago
0 ATLAS AGENA B DEB
1   630U 63030C   26177.48447670  .00000111  00000-0  53840-1 0  9998
2   630  88.4531 202.6196 0061428 227.3568 132.2095  8.59864724975635
Epoch: 2026-06-26T11:37Z
TLE epoch observation values (Epoch: 2026-06-26T11:37:38.786Z)
Latitude
-0°
Longitude
113.59567°
Altitude
3,730.051 km
Speed
6.267 km/s
True Right ascension
13h 30m 28s
True Declination
0° 00' 00"
Sunlit
Object was in daylight at epoch
Visualization orbit readout
Latitude
Unknown
Longitude
Unknown
Altitude
Unknown
Speed
Unknown
Apparent Right ascension
Unknown
Apparent Declination
Unknown
Sunlit
N/A
Visualization observer readout
Local Sidereal Time
22:59:59
Azimuth
Unknown
Elevation
Unknown
Doppler factor
Unknown
Orbital elements
Apogee altitude
3,745.753 km
Perigee altitude
3,622.135 km
Semi-major axis
10,062.081 km
Eccentricity
0.00614
Inclination
88.4531°
RAAN
202.6196°
Arg. of periapsis
227.3568°
True anomaly
132.7282°
Mean anomaly
132.2095°
Eccentric anomaly
132.46912°
Mean motion
2.15036 °/min
Orbital period
167.41 mins
BSTAR
0.05384
Loading maneuver chart data...
Computing Atmospheric mass density...
Loading historical data...
Loading historical data...
Loading historical data...
Loading historical data...
Loading historical data...
Loading historical data...
Loading historical data...

Documentation

Showing up to 5 results
|